GW4477 Weather Reports


time (UTC)temp
C
wind
direction
speed
KPH
gust
KPH
rain 1hr
cm
rain 24hr
cm
rain mn
cm
humidity
%
barometer
mb
20260905100020 25 261 3.2 11.3 0.00 0.00 0.00 58 1014.3
20260905094511 25 222 3.2 12.9 0.00 0.00 0.00 59 1014.2
20260905093021 25 219 8.0 19.3 0.00 0.00 0.00 57 1014.2
20260905091520 25 272 6.4 22.5 0.00 0.00 0.00 56 1014.5
20260905090023 25 211 11.3 24.1 0.00 0.00 0.00 56 1014.5
20260905084527 25 229 9.7 20.9 0.00 0.00 0.00 58 1014.9
20260905083021 23 237 11.3 22.5 0.00 0.00 0.00 62 1014.8
20260905081524 23 191 8.0 20.9 0.00 0.00 0.00 63 1015.3
20260905080033 23 188 9.7 19.3 0.00 0.00 0.00 66 1015.4
20260905074530 23 193 6.4 22.5 0.00 0.00 0.00 69 1015.6
20260905073035 23 142 9.7 27.4 0.00 0.00 0.00 70 1015.8
20260905071523 23 192 12.9 30.6 0.00 0.00 0.00 65 1014.8
20260905070058 25 225 17.7 30.6 0.00 0.00 0.00 61 1014.8
20260905064529 25 208 14.5 25.7 0.00 0.00 0.00 56 1015.0
20260905063030 25 258 9.7 22.5 0.00 0.00 0.00 56 1015.2
20260905061533 25 231 9.7 17.7 0.00 0.00 0.00 57 1015.4
20260905060034 24 198 6.4 19.3 0.00 0.00 0.00 60 1015.5
20260905054544 24 209 9.7 22.5 0.00 0.00 0.00 61 1015.5
20260905053012 25 205 8.0 17.7 0.00 0.00 0.00 57 1015.8
20260905051534 26 352 8.0 24.1 0.00 0.00 0.00 52 1016.0
20260905050023 26 227 8.0 22.5 0.00 0.00 0.00 51 1016.2
20260905044528 26 217 11.3 20.9 0.00 0.00 0.00 52 1015.9
20260905043008 26 222 11.3 22.5 0.00 0.00 0.00 52 1015.6
20260905041512 26 186 12.9 20.9 0.00 0.00 0.00 53 1015.8
20260905040022 26 209 11.3 24.1 0.00 0.00 0.00 58 1015.8
20260905034533 26 223 11.3 29.0 0.00 0.00 0.00 60 1015.9
20260905033039 26 224 11.3 20.9 0.00 0.00 0.00 57 1016.2
20260905031515 27 197 11.3 25.7 0.00 0.00 0.00 52 1016.2
20260905030017 27 194 8.0 17.7 0.00 0.00 0.00 51 1016.0
20260905024523 28 188 8.0 24.1 0.00 0.00 0.00 47 1015.3
20260905023033 30 192 12.9 22.5 0.00 0.00 0.00 40 1015.2
20260905021532 30 213 4.8 17.7 0.00 0.00 0.00 37 1014.9
20260905020021 28 167 9.7 14.5 0.00 0.00 0.00 43 1014.4
20260905014520 28 198 8.0 19.3 0.00 0.00 0.00 45 1014.2
20260905013030 28 207 8.0 19.3 0.00 0.00 0.00 44 1014.0
20260905011534 28 225 11.3 20.9 0.00 0.00 0.00 46 1013.9
20260905010014 27 210 8.0 16.1 0.00 0.00 0.00 51 1013.8
20260905004520 26 209 9.7 27.4 0.00 0.00 0.00 58 1013.7
20260905003030 29 252 9.7 22.5 0.00 0.00 0.00 49 1013.9
20260905001528 30 138 8.0 14.5 0.00 0.00 0.00 42 1013.8
20260905000030 30 250 4.8 12.9 0.00 0.00 0.00 43 1013.9
20260904234532 31 244 1.6 12.9 0.00 0.00 0.00 42 1013.8
20260904233025 32 261 3.2 11.3 0.00 0.00 0.00 38 1013.8
20260904231508 34 188 4.8 16.1 0.00 0.00 0.00 38 1013.1
20260904230010 34 360 4.8 14.5 0.00 0.00 0.00 37 1012.9
20260904224502 35 360 8.0 16.1 0.00 0.00 0.00 36 1013.1
20260904223004 35 190 9.7 16.1 0.00 0.00 0.00 34 1013.0
20260904221505 36 360 12.9 24.1 0.00 0.00 0.00 34 1012.9
20260904220010 36 360 12.9 22.5 0.00 0.00 0.00 34 1012.8
20260904214514 36 176 11.3 22.5 0.00 0.00 0.00 34 1012.8
20260904213002 37 134 14.5 27.4 0.00 0.00 0.00 34 1012.8
20260904211504 37 169 14.5 25.7 0.00 0.00 0.00 34 1012.9
20260904210006 37 196 12.9 24.1 0.00 0.00 0.00 34 1012.9
20260904204510 37 171 12.9 29.0 0.00 0.00 0.00 35 1013.0
20260904203031 37 209 9.7 27.4 0.00 0.00 0.00 36 1013.3
20260904201504 37 209 9.7 22.5 0.00 0.00 0.00 35 1013.5
20260904200009 37 148 9.7 20.9 0.00 0.00 0.00 35 1013.5
20260904194509 37 360 12.9 19.3 0.00 0.00 0.00 35 1013.7
20260904193014 37 360 8.0 22.5 0.00 0.00 0.00 35 1013.8
20260904191525 36 151 6.4 20.9 0.00 0.00 0.00 35 1014.0
20260904190009 36 360 9.7 17.7 0.00 0.00 0.00 37 1014.1
20260904184508 36 188 8.0 24.1 0.00 0.00 0.00 36 1014.3
20260904183011 35 169 9.7 19.3 0.00 0.00 0.00 40 1014.4
20260904181521 35 360 9.7 20.9 0.00 0.00 0.00 41 1014.6
20260904180024 35 144 8.0 17.7 0.00 0.00 0.00 43 1014.7
20260904174508 34 360 9.7 17.7 0.00 0.00 0.00 44 1015.0
20260904173011 33 360 8.0 19.3 0.00 0.00 0.00 47 1015.0
20260904171519 33 189 6.4 17.7 0.00 0.00 0.00 47 1015.1
20260904170027 32 360 9.7 16.1 0.00 0.00 0.00 49 1015.0
20260904164531 32 360 9.7 20.9 0.00 0.00 0.00 50 1015.0
20260904163010 31 360 11.3 17.7 0.00 0.00 0.00 51 1015.1
20260904161514 31 144 8.0 22.5 0.00 0.00 0.00 55 1015.0
20260904160042 30 360 6.4 19.3 0.00 0.00 0.00 57 1014.8
20260904154535 29 360 8.0 25.7 0.00 0.00 0.00 60 1015.0
20260904153031 28 175 11.3 17.7 0.00 0.00 0.00 63 1015.0
20260904151518 28 259 11.3 27.4 0.00 0.00 0.00 65 1015.0
20260904150037 27 360 8.0 17.7 0.00 0.00 0.00 69 1015.1
20260904144527 26 252 4.8 16.1 0.00 0.00 0.00 73 1015.2
20260904143033 26 242 8.0 19.3 0.00 0.00 0.00 75 1015.4
20260904141520 25 360 4.8 12.9 0.00 0.00 0.00 78 1015.4
20260904140025 24 360 6.4 14.5 0.00 0.00 0.00 79 1015.5
20260904134503 23 360 8.0 14.5 0.00 0.00 0.00 80 1015.4
20260904133006 23 178 4.8 12.9 0.00 0.00 0.00 82 1015.2
20260904131513 22 360 3.2 6.4 0.00 0.00 0.00 82 1015.1
20260904130032 21 360 3.2 8.0 0.00 0.00 0.00 83 1015.0
20260904124523 21 194 3.2 9.7 0.00 0.00 0.00 82 1014.7
20260904123006 21 360 4.8 12.9 0.00 0.00 0.00 82 1014.6
20260904121518 21 360 4.8 9.7 0.00 0.00 0.00 81 1014.5
20260904120019 21 360 3.2 8.0 0.00 0.00 0.00 80 1014.4
20260904114520 21 360 1.6 8.0 0.00 0.00 0.00 78 1014.3
20260904113032 21 194 3.2 9.7 0.00 0.00 0.00 77 1014.3
20260904111511 22 360 3.2 9.7 0.00 0.00 0.00 76 1014.4
20260904110012 22 186 4.8 12.9 0.00 0.00 0.00 75 1014.3
20260904104520 22 360 6.4 12.9 0.00 0.00 0.00 73 1014.3
20260904103028 22 360 4.8 16.1 0.00 0.00 0.00 72 1014.2
20260904101531 22 194 4.8 12.9 0.00 0.00 0.00 71 1014.1